Regional Weather Roundup
Issued by NWS

Home | Current Version | Previous Version | Text Only | Print | Product List | Glossary Off
Versions: 1 2 3 4 5 6 7 8 9 10 11 12 13 14 15 16 17 18 19 20 21 22 23 24 25 26 27 28 29 30 31 32 33 34 35 36 37 38 39 40 41 42 43 44 45 46 47 48 49 50

000
ASUS43 KMKX 230421
RWRWI

WISCONSIN REGIONAL WEATHER ROUNDUP
NATIONAL WEATHER SERVICE MILWAUKEE/SULLIVAN WI
1100 PM CDT THU JUN 22 2017

NOTE: "FAIR" INDICATES FEW OR NO CLOUDS BELOW 12,000 FEET WITH NO
SIGNIFICANT WEATHER AND/OR OBSTRUCTIONS TO VISIBILITY.

WIZ001-002-006>008-014>016-023>028-230500-
NORTHWEST WISCONSIN

CITY           SKY/WX    TMP DP  RH WIND       PRES   REMARKS
SUPERIOR ARPT  NOT AVBL
ASHLAND        CLEAR     63  54  72 SW9       29.69S
HAYWARD        CLEAR     56  53  90 CALM      29.73S
SIREN          CLEAR     62  51  66 CALM      29.73S
CUMBERLAND     PTCLDY    61  59  94 CALM      29.74S
RICE LAKE      PTCLDY    63  60  90 CALM      29.75S
CHETEK         PTCLDY    60  60 100 CALM      29.74S
LADYSMITH      CLEAR     60  59  97 W3        29.75S
EAU CLAIRE     MOCLDY    63  63 100 NW5       29.72S
MENOMONIE      PTCLDY    65  64  96 W6        29.73S
NEW RICHMOND   CLOUDY    62  61  97 W5        29.75S
OSCEOLA        CLOUDY    63  63 100 CALM      29.77S
$$

WIZ003>005-009-010-017-018-230500-
NORTH CENTRAL WISCONSIN

CITY           SKY/WX    TMP DP  RH WIND       PRES   REMARKS
MANITOWISH WTR FOG       53  53 100 CALM      29.72S VSB 1/2
ARBOR VITAE    CLEAR     58  57  96 CALM      29.72S FOG
WOODRUFF       CLEAR     58  57  96 CALM      29.72S FOG
RHINELANDER    CLOUDY    58  58 100 W5        29.73S FOG
EAGLE RIVER    FOG       55  55 100 CALM      29.71S VSB 1/4
LAND O LAKES     N/A     53  53  99 CALM      29.72F FOG
PHILLIPS       CLOUDY    56  56 100 CALM      29.72S FOG
TOMAHAWK       NOT AVBL
MEDFORD        CLOUDY    61  60  97 CALM      29.72F
MERRILL        PTCLDY    62  62 100 CALM      29.72F
$$

WIZ029-030-035-036-043>047-230500-
CENTRAL WISCONSIN

CITY           SKY/WX    TMP DP  RH WIND       PRES   REMARKS
WAUSAU         MOCLDY    64  62  93 NW5       29.70F
MOSINEE        CLOUDY    63  63 100 NW6       29.73F
MARSHFIELD     CLOUDY    65  62  90 N5        29.71F
STEVENS POINT  CLOUDY    64  64 100 CALM      29.71F
WAUPACA        CLOUDY    67  67  99 CALM      29.71S
WAUTOMA        LGT RAIN  65  64  97 CALM      29.71F
WISC RAPIDS    CLOUDY    66  65  96 NW5       29.72F FOG
CAMP DOUGLAS   LGT RAIN  66  66 100 S5        29.72R
$$

WIZ011>013-019>022-031-037>040-048>050-230500-
NORTHEAST WISCONSIN

CITY           SKY/WX    TMP DP  RH WIND       PRES   REMARKS
ANTIGO         DRIZZLE   62  62  99 NW5       29.72F
SHAWANO        CLOUDY    67  66  94 CALM      29.70S
OCONTO         CLOUDY    66  65  99 CALM      29.69R
STURGEON BAY     N/A     66  66 100 SW3         N/A  FOG
GREEN BAY      CLOUDY    67  67 100 S6        29.71R
MANITOWOC      TSTM      67  65  93 VRB3      29.71F FOG
APPLETON       LGT RAIN  64  64 100 W3        29.70S
CLINTONVILLE   CLOUDY    64  64 100 CALM      29.70F
OSHKOSH        CLOUDY    67  66  97 CALM      29.70F
$$

WIZ032>034-041-042-053>061-230500-
SOUTHWEST WISCONSIN

CITY           SKY/WX    TMP DP  RH WIND       PRES   REMARKS
LA CROSSE      TSTM      69  68  96 N3        29.71S FOG
SPARTA         CLOUDY    65  65 100 CALM      29.72S
VIROQUA        CLOUDY    65  65 100 CALM      29.73S
BOSCOBEL       LGT RAIN  69  67  93 VRB5      29.68F
PRAIRIE DU CHI LGT RAIN  70  67  89 CALM      29.68R
PLATTEVILLE    PTCLDY    76  73  89 S8        29.68F
$$

WIZ056-057-062-063-064-067-068-230500-
SOUTH CENTRAL WISCONSIN

CITY           SKY/WX    TMP DP  RH WIND       PRES   REMARKS
REEDSBURG      HVY RAIN  64  64 100 E6        29.72R
BARABOO/DELLS  TSTM      65  63  93 N3        29.73R VSB 3/4
LONE ROCK      TSTM      68  64  87 N22       29.71R VSB 3/4
MINERAL POINT  PTCLDY    72  72 100 N3        29.69F
MADISON        MOCLDY    69  66  90 CALM      29.68F
MIDDLETON      MOCLDY    69  67  94 N5        29.69S
WATERTOWN      CLOUDY    67  67 100 SE6       29.68F
MONROE         CLOUDY    73  70  88 S10       29.68F
JANESVILLE     CLOUDY    77  70  78 SW7       29.68F
$$

WIZ051-052-058>065-066-070>072-230500-
SOUTHEAST WISCONSIN

CITY           SKY/WX    TMP DP  RH WIND       PRES   REMARKS
MILWAUKEE      CLOUDY    69  67  93 NW5       29.68F
WAUKESHA       CLOUDY    64  64 100 CALM      29.71F
MILWAUKEE/TIMM MOCLDY    66  63  88 CALM      29.69F
RACINE         CLOUDY    70  66  87 S6        29.69F
KENOSHA        MOCLDY    78  69  73 SW12      29.69F HX  80
FOND DU LAC    TSTM      67  64  90 N6        29.72R FOG
SHEBOYGAN      CLOUDY    67  67 100 N3        29.72R
WEST BEND      CLOUDY    66  66 100 CALM      29.71R
JUNEAU         PTCLDY    67  65  93 NE3       29.71S
$$

LSZ147-162-230500-
LAKE SUPERIOR

STATION/POSITION TIME  TEMP    WIND        PRES    WAVE
                       AIR SEA DIR/SP/G            HT/PER
                 (UTC) (F)     (DEG/KT/KT) (MB)    (FT/S)
W MID LAKE BUOY  0350   52 39  260/ 16/ 17 1004.6R   1
DEVILS ISLAND    0400   60     300/  9/ 10 1004.7F
PORT WING        0349   62     280/ 15/ 27 1006.1
SAXON HARBOR     0330   66     190/  5/  8 1004.7F
$$

LMZ867-665-643>646-230500-
LAKE MICHIGAN

STATION/POSITION TIME  TEMP    WIND        PRES    WAVE
                       AIR SEA DIR/SP/G            HT/PER
                 (UTC) (F)     (DEG/KT/KT) (MB)    (FT/S)
CHAMBERS ISLAND  0340   65     260/  2/  3 1004.1F
N MID LAKE BUOY  0350   61 54  220/  6/  6 1005.0F   2/ 5
NORTHPORT PIER   0340   66     280/  4/  5 1004.4F
KEWAUNEE LAKESHO 0354   62     180/  8/  9 1005.7R
SHEBOYGAN LAKESH 0400   62     360/  9/  9 1005.7R
PORT WASHINGTON  0330   65      CALM  /  2 1006.4F
ATWATER BUOY     0309   63 58  340/  4/  6 1005.6F
MILWAUKEE LAKESH 0400   66     350/  3/  3   N/A
S MID LAKE BUOY  0350   67 61  190/ 17/ 19 1005.0F   2/ 4
KENOSHA   LAKESH 0400   69     190/  8/ 11 1004.7
$$

TC  - TEMPERATURE IN CELSIUS
VSB - VISIBILITY IN STATUTE MILES
WCI - WIND CHILL INDEX
HX  - HEAT INDEX




USA.gov is the U.S. government's official web portal to all federal, state and local government web resources and services.